Location: Bergheim
(50.9593°N, 6.6400°E)
Time: 22:02:51
(UTC+02:00)

ISS - Visible Passes

Search period start: 01 October 2022 00:00
Search period end: 11 October 2022 00:00
Orbit: 416 x 420 km, 51.6° (Epoch: 01 October)

Date Brightness Start Highest point End Pass type
(mag) Time Alt. Az. Time Alt. Az. Time Alt. Az.
01 Oct -2.5 20:30:59 10° W 20:34:06 34° SSW 20:36:14 17° SSE visible
02 Oct -2.9 19:43:07 10° W 19:46:25 48° SSW 19:49:41 10° SE visible
02 Oct -1.0 21:21:12 10° WSW 21:22:35 12° SW 21:23:29 11° SSW visible
03 Oct -1.3 20:33:02 10° W 20:35:23 18° SW 20:37:45 10° S visible
04 Oct -1.7 19:45:39 10° W 19:48:30 25° SW 19:51:21 10° SSE visible
06 Oct -0.7 19:50:36 10° WSW 19:51:55 12° SW 19:53:13 10° SSW visible
